This demonstration page uses our WeatherBlox Daily Observations layout. Learn more.

Left ArrowRight Arrow

39.51506, -84.39828

Hourly Observations for November 28, 2020

Temp ( °F °C ) Dew Point ( °F °C ) Humidity (%) Winds ( mph kmh ) Pressure ( in mb ) Visibility ( mi km ) Precip ( " mm )
12:15 am 00:15 Clear with Mist and Fog 37 2.6 36 2.3 98 98 Calm 30.14 1021 4 6.43736 0 0
12:35 am 00:35 Hazy 37 3 N/A N/A Calm 30.15 1021 5 8.0467 0 0
12:55 am 00:55 Mostly Cloudy with Mist and Fog 37 3 N/A N/A Calm 30.15 1021 3 4.82802 0 0
1:15 am 01:15 Mostly Cloudy with Haze 36 2 N/A N/A Calm 30.15 1021 4 6.43736 0 0
1:35 am 01:35 Cloudy 37 3 N/A N/A Calm 30.16 1021 7 11.26538 0 0
1:55 am 01:55 Cloudy 41 4.9 40 4.4 97 97 N 5 7 30.16 1021 10 16.0934 0 0
2:15 am 02:15 Cloudy 40 4.7 36 2.3 85 85 N 10 17 30.16 1021 10 16.0934 0 0
2:35 am 02:35 Mostly Cloudy 39 4.1 35 1.7 85 85 NNW 6 9 30.16 1021 10 16.0934 0 0
2:55 am 02:55 Cloudy 39 4.1 35 1.9 86 86 NW 3 6 30.17 1022 10 16.0934 0 0
3:15 am 03:15 Cloudy 40 4.2 35 1.9 85 85 NNW 7 11 30.18 1022 10 16.0934 0 0
3:35 am 03:35 Cloudy 39 4.1 35 1.4 83 83 N 7 11 30.19 1022 10 16.0934 0 0
3:55 am 03:55 Mostly Cloudy 38 3.6 33 0.6 81 81 N 5 7 30.19 1022 10 16.0934 0 0
4:15 am 04:15 Clear 38 3.2 33 0.4 82 82 Calm 30.19 1022 10 16.0934 0 0
4:35 am 04:35 Clear 37 2.5 33 0.4 86 86 WNW 3 6 30.19 1022 10 16.0934 0 0
4:55 am 04:55 Clear 36 2.1 33 0.7 91 91 Calm 30.21 1023 10 16.0934 0 0
5:15 am 05:15 Clear 35 1.8 33 0.3 90 90 Calm 30.2 1023 10 16.0934 0 0
5:35 am 05:35 Clear 35 1.5 32 0.1 91 91 Calm 30.21 1023 7 11.26538 0 0
5:55 am 05:55 Clear with Mist and Fog 33 0.3 31 -0.3 96 96 Calm 30.21 1023 5 8.0467 0 0
6:15 am 06:15 Partly Cloudy with Mist and Fog 33 0.7 32 -0.1 94 94 Calm 30.22 1023 7 11.26538 0 0
6:35 am 06:35 Partly Cloudy with Mist and Fog 33 0.6 31 -0.3 94 94 Calm 30.22 1023 7 11.26538 0 0
6:55 am 06:55 Clear with Mist and Fog 33 0.5 31 -0.5 93 93 Calm 30.22 1023 7 11.26538 0 0
7:15 am 07:15 Clear with Mist and Fog 32 0.2 32 -0.1 98 98 Calm 30.23 1024 5 8.0467 0 0
7:35 am 07:35 Clear with Mist and Fog 33 0.8 32 0.1 95 95 Calm 30.24 1024 5 8.0467 0 0
7:55 am 07:55 Sunny with Mist and Fog 32 -0.1 31 -0.8 95 95 Calm 30.26 1025 4 6.43736 0 0
8:15 am 08:15 Sunny with Mist and Fog 31 -0.5 30 -1 96 96 Calm 30.26 1025 3.5 5.63269 0 0
8:35 am 08:35 Sunny with Mist and Fog 34 0.9 32 0.2 95 95 Calm 30.26 1025 5 8.0467 0 0
8:55 am 08:55 Sunny with Mist and Fog 35 1.6 33 0.4 92 92 Calm 30.26 1025 5 8.0467 0 0
9:15 am 09:15 Sunny with Mist and Fog 37 2.6 34 0.9 89 89 Calm 30.26 1025 5 8.0467 0 0
9:35 am 09:35 Sunny 37 3 34 1.1 87 87 Calm 30.27 1025 7 11.26538 0 0
9:55 am 09:55 Sunny 39 3.8 33 0.8 81 81 N 3 6 30.28 1025 10 16.0934 0 0
10:15 am 10:15 Sunny 40 4.3 33 0.6 77 77 Calm 30.27 1025 10 16.0934 0 0
10:35 am 10:35 Sunny 41 5.2 33 0.7 73 73 Calm 30.28 1025 10 16.0934 0 0
10:55 am 10:55 Sunny 41 5 32 0.2 71 71 Calm 30.28 1025 10 16.0934 0 0
11:15 am 11:15 Sunny 42 5.8 32 0 67 67 Calm 30.28 1025 10 16.0934 0 0
11:35 am 11:35 Sunny 44 6.4 33 0.5 66 66 Calm 30.27 1025 10 16.0934 0 0
11:55 am 11:55 Sunny 44 6.5 32 -0.2 63 63 Calm 30.27 1025 10 16.0934 0 0
12:15 pm 12:15 Sunny 44 6.9 31 -0.4 60 60 Calm 30.26 1025 10 16.0934 0 0
12:35 pm 12:35 Sunny 45 7.3 31 -0.3 59 59 Calm 30.25 1024 10 16.0934 0 0
12:55 pm 12:55 Sunny 46 7.7 31 -0.6 56 56 SSW 6 9 30.24 1024 10 16.0934 0 0
1:15 pm 13:15 Sunny 46 7.9 32 -0.1 57 57 WSW 7 11 30.23 1024 10 16.0934 0 0
1:35 pm 13:35 Sunny 47 8.4 30 -1 52 52 SW 7 11 30.22 1023 10 16.0934 0 0
1:55 pm 13:55 Sunny 47 8.4 28 -2 48 48 Calm 30.22 1023 10 16.0934 0 0
2:15 pm 14:15 Sunny 48 8.8 30 -1.1 50 50 W 8 13 30.21 1023 10 16.0934 0 0
2:35 pm 14:35 Sunny 48 9 29 -1.6 48 48 Calm 30.2 1023 10 16.0934 0 0
2:55 pm 14:55 Sunny 48 8.9 27 -2.7 44 44 Calm 30.19 1022 10 16.0934 0 0
3:15 pm 15:15 Sunny 48 9.1 29 -1.4 48 48 WSW 5 7 30.19 1022 10 16.0934 0 0
3:35 pm 15:35 Sunny 48 9 29 -1.8 47 47 SW 7 11 30.19 1022 10 16.0934 0 0
3:55 pm 15:55 Sunny 48 9 28 -2.1 46 46 WSW 8 13 30.19 1022 10 16.0934 0 0
4:15 pm 16:15 Sunny 48 8.8 28 -2.5 45 45 SW 7 11 30.2 1023 10 16.0934 0 0
4:35 pm 16:35 Sunny 47 8.4 29 -1.4 50 50 WSW 6 9 30.2 1023 10 16.0934 0 0
4:55 pm 16:55 Sunny 46 7.6 30 -0.9 55 55 WSW 6 9 30.21 1023 10 16.0934 0 0
5:15 pm 17:15 Sunny 44 6.6 30 -1.1 58 58 WSW 6 9 30.21 1023 10 16.0934 0 0
5:35 pm 17:35 Clear 43 6.2 30 -1.3 59 59 W 3 6 30.21 1023 10 16.0934 0 0
5:55 pm 17:55 Clear 40 4.5 33 0.5 76 76 Calm 30.21 1023 10 16.0934 0 0
6:15 pm 18:15 Clear 39 3.7 34 1.1 83 83 Calm 30.22 1023 10 16.0934 0 0
6:35 pm 18:35 Clear 35 1.5 32 0.2 91 91 Calm 30.22 1023 10 16.0934 0 0
6:55 pm 18:55 Clear 37 2.5 32 0.1 84 84 Calm 30.22 1023 10 16.0934 0 0
7:15 pm 19:15 Clear 35 1.8 32 0 88 88 Calm 30.21 1023 10 16.0934 0 0
7:35 pm 19:35 Clear 35 1.7 33 0.3 91 91 Calm 30.21 1023 10 16.0934 0 0
7:55 pm 19:55 Clear 34 1 31 -0.7 89 89 Calm 30.21 1023 10 16.0934 0 0
8:15 pm 20:15 Clear 33 0.8 31 -0.6 90 90 Calm 30.21 1023 10 16.0934 0 0
8:35 pm 20:35 Clear 33 0.4 30 -1 90 90 Calm 30.21 1023 10 16.0934 0 0
8:55 pm 20:55 Clear 33 0.4 30 -0.9 91 91 Calm 30.22 1024 10 16.0934 0 0
9:15 pm 21:15 Clear 32 -0.1 30 -1.1 93 93 Calm 30.23 1024 10 16.0934 0 0
9:35 pm 21:35 Clear 32 -0.1 31 -0.8 95 95 Calm 30.23 1024 10 16.0934 0 0
9:55 pm 21:55 Clear 31 -0.4 30 -1.3 94 94 Calm 30.24 1024 10 16.0934 0 0
10:15 pm 22:15 Clear 31 -0.3 30 -1.1 94 94 Calm 30.24 1024 10 16.0934 0 0
10:35 pm 22:35 Clear 31 -0.4 30 -1 96 96 Calm 30.24 1024 10 16.0934 0 0
10:55 pm 22:55 Clear 31 -0.7 30 -1.1 97 97 Calm 30.24 1024 10 16.0934 0 0
11:15 pm 23:15 Clear 30 -1.1 29 -1.4 98 98 Calm 30.23 1024 10 16.0934 0 0
11:35 pm 23:35 Clear 30 -1.2 29 -1.6 97 97 Calm 30.23 1024 10 16.0934 0 0
11:55 pm 23:55 Clear 30 -1.3 29 -1.5 99 99 Calm 30.22 1023 7 11.26538 0 0

Powered by AerisWeather